Regional Weather Roundup
Issued by NWS

Home | Current Version | Previous Version | Graphics & Text | Print | Product List | Glossary On
Versions: 1 2 3 4 5 6 7 8 9 10 11 12 13 14 15 16 17 18 19 20 21 22 23 24 25 26 27 28 29 30 31 32 33 34 35 36 37 38 39 40 41 42 43 44 45 46 47 48 49 50
000
ASUS43 KBIS 110520
RWRND

NORTH DAKOTA REGIONAL WEATHER ROUNDUP
NATIONAL WEATHER SERVICE BISMARCK ND
1200 AM CDT FRI JUL 11 2014

NOTE: "FAIR" INDICATES FEW OR NO CLOUDS BELOW 12,000 FEET WITH NO
SIGNIFICANT WEATHER AND/OR OBSTRUCTIONS TO VISIBILITY.


NDZ001>003-009>011-017-110600-
NORTHWEST NORTH DAKOTA

CITY           SKY/WX    TMP DP  RH WIND       PRES   REMARKS
WILLISTON      CLEAR     70  61  73 N12       29.87R
MINOT          MOCLDY    71  67  87 N12       29.82R
MINOT AFB      MOCLDY    72  71  96 NE6       29.82R
$$

NDZ018>021-031>035-040>046-110600-
SOUTHWEST NORTH DAKOTA

CITY           SKY/WX    TMP DP  RH WIND       PRES   REMARKS
BISMARCK       CLEAR     66  64  93 SE5       29.83S
DICKINSON      CLEAR     70  66  87 SW8       29.85R
GARRISON         N/A     68  67  96 S7        29.80S
HETTINGER ARPT PTCLDY    69  65  86 SE6       29.87S
$$

NDZ004>008-012>016-024-026-027-054-110600-
NORTHEAST NORTH DAKOTA

CITY           SKY/WX    TMP DP  RH WIND       PRES   REMARKS
GRAND FORKS    MOCLDY    69  64  84 S6        29.81S
GRND FRKS AFB  PTCLDY    67  67  99 S6        29.82S
DEVILS LAKE    CLEAR     68  63  83 S5        29.81S
$$

NDZ022-023-025-028>030-036>039-047>053-110600-
SOUTHEAST NORTH DAKOTA

CITY           SKY/WX    TMP DP  RH WIND       PRES   REMARKS
FARGO          MOCLDY    71  67  87 SE10      29.82F
JAMESTOWN      CLEAR     66  64  93 S5        29.82F
$$




USA.gov is the U.S. government's official web portal to all federal, state and local government web resources and services.